Погода в Почтовом

Россия / Республика Крым     44°50′12″N   33°57′48″E
темп.,
°C
ветер,
м/с
пор.,
м/с
влажн.,
%
обл.,
%
осадки,
мм/ч
давл.,
гПа
погр.,
м
25 февраля, чт
чт2500:00−1ююз119368 0.0 103621
03:00−2ююв019440 0.0 103622
06:00−1юв119372 0.0 103646
09:00+1ю117476 0.0 103682
12:00+4зсз226675 0.0 1035371
15:00+5зсз226975 0.0 1034409
18:00+3з118186 0.0 103368
21:00+2ююз118492 0.0 103326
26 февраля, пт
пт2600:00+3ю1189100 0.0 103225
03:00+3ююв2293100 0.0 103246
06:00+3ююв129697 0.0 103134
09:00+4ю119196 0.0 103078
12:00+6юз2287100 0.0 1029220
15:00+7зюз238698 0.0 1028411
18:00+6ююз129076 0.0 102634
21:00+5ю229139 0.0 102627
27 февраля, сб
сб2700:00+4ю22880 0.0 102426
03:00+3ю22900 0.0 102235
06:00+3ю23870 0.0 102036
09:00+5ююз25810 0.0 1019218
12:00+9зюз47710 0.0 1018673
15:00+8з468031 0.0 1017652
18:00+6зюз2394100 0.1 1016276
21:00+4ссз3797100 1.6 1017420
28 февраля, вс
вс2800:00+3с2695100 2.9 1017457
03:00+2ссз268596 3.1 1018596
06:00+1сз249795 0.1 1018255
09:00+1сз259297 0.4 1020428
12:00+2ссз358398 0.4 1021594
15:00+3ссз457999 0.9 1022691
18:00+2ссз3593100 0.6 1022405
21:000ссз1297100 1.1 1024159
1 марта, пн
пн100:000с1196100 0.4 1025161
03:00−1с019494 0.6 102622
06:00−1с119392 0.1 102732
09:000ссв238893 0.3 1028407
12:00+2с347479 0.1 1029738
15:00+3ссв457185 0.3 1030862
18:00+1ссв368579 0.3 1030549
21:00−2св249043 0.3 1032156